星链-36982(STARLINK-36982)

导读

STARLINK-36982(NORAD编号68278)是美国太空探索技术公司(SpaceX)星链(Starlink)星座的组网卫星,属于二代星链(Gen2)卫星。星链计划是全球规模最大的低轨互联网星座项目,旨在为全球提供高速低延迟卫星互联网服务,STARLINK-36982运行在近地轨道,采用紧凑平板设计,依托猎鹰九号火箭发射组网,和其他星链卫星共同构建覆盖全球的天基通信网络,支撑消费级互联网接入、特殊场景通信服务等应用。

Basic Information
目录编号:
68278
目录名称:
STARLINK-36982
国际标识:
2026-055S
轨道中心:
EARTH
卫星名称:
星链-36982
卫星全名:
星链-36982(STARLINK-36982)
卫星状态:
在轨 (已飞行178 天)
发射日期:
2026-03-19 UTC
国别 :
美国 (US)
星等 :
--
This satellite is enrolled in the Space Conjunction Data Service (SCDS) and the current flight risk assessment level is: No High Risk
Orbit Information
数据来源 国际轨道数据
星历时间: 2026-09-13T11:43:25+0800
6小时前
查看轨道信息
半长轴: 6840.925km
偏心率: 0.0000973
轨道倾角: 53.158°
近地点辐角 93.104°
升交点赤经 164.193°
平近点角 267.007°
近地点: 462.122km
远地点: 463.454km
周期: 93.849分钟
每日圈数: 15.343717
Detailed Information
固有亮度:
5
最大亮度:
2.5
卫星平台:
Starlink V1.0
覆盖范围:
全球
运营商:
太空探索技术公司
运营商所在国:
美国
制造商(研发单位):
太空探索技术公司
制造商所在国:
美国
使用方式:
暂无
Satellite Introduction
Starlink 计划是 SpaceX 推出的全球卫星互联网项目,通过发射低轨道卫星,为全球尤其是偏远地区提供高速、低延迟的互联网服务。自 2019 年起,Starlink 已部署数千颗卫星,旨在缩小全球数字鸿沟,推动互联网普及。该项目还为军事、航空等行业提供通信支持,带来广泛经济效益。
2D Orbit Map
3D Orbit Map
Orbit Altitude Analysis Chart
Orbit Inclination Analysis Chart
Orbit Comprehensive Analysis Chart
View Comprehensive Chart
Conjunction Data List
Event ID Objects TCA Miss Dist (km) Collision Risk Probability Collision Risk Index (CRI) Action
CDM_260915-043906-409806-827821
2026-09-15T
04:39:52+0000
1.064 km
极远距离
1.268143E-5 中风险 0.57
CDM_260915-061306-409806-827821
2026-09-15T
06:13:40+0000
1.821 km
极远距离
2.243624E-6 低风险 0.42
CDM_260915-030606-409806-827821
2026-09-15T
03:06:05+0000
2.439 km
极远距离
1.163496E-6 低风险 0.36
Miss Distance Evolution Trend with All Objects
Collision Probability Evolution Trend with All Objects